Location: ?????????
(38.5999°N, 22.7695°E)
Time: 09:54:57
(UTC+00:00)

Cosmos 2154 Rocket - Pass Details

Date: 14 August 2024
Orbit: 964 x 997 km, 82.9° (Epoch: 07 September)

Event Time Altitude Azimuth Distance (km) Brightness Sun altitude
Rises 02:23:17 0° 1° (N) 3,673 7.5 -14.7°
Reaches altitude 10° 02:26:02 10° 10° (N) 2,718 6.9 -14.3°
Maximum altitude 02:31:42 36° 76° (ENE) 1,485 5.7 -13.3°
Drops below altitude 10° 02:37:19 10° 142° (SE) 2,695 6.4 -12.4°
Sets 02:40:01 0° 150° (SSE) 3,637 7.0 -11.9°
